Location: Fort Wayne
(41.1310°N, 85.1290°W)
Time: 08:33:33
(UTC-05:00)

Cosmos 1000 Rocket - Visible Passes

Search period start: 06 February 2016 00:00
Search period end: 16 February 2016 00:00
Orbit: 953 x 993 km, 82.9° (Epoch: 05 February)

Date Brightness Start Highest point End Pass type
(mag) Time Alt. Az. Time Alt. Az. Time Alt. Az.
06 Feb 6.8 06:50:05 10° SE 06:55:12 27° E 07:00:19 10° NNE visible
06 Feb 5.2 19:29:48 10° NNW 19:35:46 54° W 19:41:42 10° SSW visible
07 Feb 5.7 07:13:40 10° SSE 07:19:39 49° E 07:25:36 10° NNE visible
07 Feb 6.4 19:55:01 10° NNW 20:00:13 30° W 20:05:25 10° SW visible
08 Feb 7.6 05:57:50 10° E 05:59:55 12° ENE 06:02:00 10° ENE visible
08 Feb 4.4 18:33:47 10° N 18:39:56 70° E 18:46:02 10° SSE visible
08 Feb 7.3 20:20:53 10° NW 20:24:31 16° W 20:28:08 10° WSW visible
09 Feb 7.1 06:19:28 10° SE 06:24:08 22° E 06:28:46 10° NE visible
09 Feb 4.9 18:58:31 10° NNW 19:04:36 66° W 19:10:39 10° S visible
10 Feb 6.0 06:42:46 10° SSE 06:48:31 40° E 06:54:15 10° NNE visible
10 Feb 6.1 19:23:34 10° NNW 19:29:06 36° W 19:34:38 10° SSW visible
11 Feb 4.9 07:06:50 10° S 07:13:03 72° E 07:19:15 10° NNE visible
11 Feb 7.1 19:49:09 10° NW 19:53:27 20° W 19:57:45 10° SW visible
12 Feb 7.3 05:49:01 10° ESE 05:53:04 18° E 05:57:07 10° NE visible
12 Feb 4.7 18:27:15 10° N 18:33:24 80° W 18:39:32 10° S visible
12 Feb 7.8 20:16:51 10° WNW 20:17:38 10° WNW 20:18:25 10° W visible
13 Feb 6.3 06:11:57 10° SSE 06:17:24 33° E 06:22:50 10° NNE visible
13 Feb 5.8 18:52:12 10° NNW 18:57:58 44° W 19:03:43 10° SSW visible
14 Feb 5.2 06:35:47 10° S 06:41:53 59° E 06:47:58 10° NNE visible
14 Feb 6.9 19:17:33 10° NNW 19:22:23 25° W 19:27:11 10° SW visible
15 Feb 7.4 05:18:47 10° ESE 05:22:01 15° E 05:25:15 10° NE visible
15 Feb 4.5 07:00:17 10° S 07:06:32 79° W 07:12:45 10° N visible
15 Feb 7.6 19:43:55 10° NW 19:46:37 13° W 19:49:19 10° WSW visible
